St. Stephen, New Brunswick

5:48 AM ADT on July 25, 2017 (GMT -0300)
St. Stephen

Weather History for CWSS - February, 2013

Change the Weather History Date:

Friday, February 22, 2013

  Actual Average Record
Temperature  
Mean Temperature 30 °F -  
Max Temperature 37 °F - - ()
Min Temperature 23 °F - - ()
Degree Days  
Heating Degree Days 35    
Moisture  
Dew Point 20 °F    
Average Humidity 62    
Maximum Humidity 82    
Minimum Humidity 32    
Precipitation  
Precipitation 0.00 in - - ()
Sea Level Pressure  
Sea Level Pressure 30.27 in    
Wind  
Wind Speed 9 mph ()    
Max Wind Speed 14 mph    
Max Gust Speed 24 mph    
T = Trace of Precipitation, MM = Missing Value Source: Averaged Metar Reports

Daily Weather History Graph

Daily Weather History Graph

Search for Another Location

Airport or City:

Trip Planner

Search our weather history database for the weather conditions in past years. The results will help you decide how hot, cold, wet, or windy it might be!

Date:

Astronomy

Feb. 22, 2013 Rise Set
Actual Time 7:18 AM AST 6:06 PM AST
Civil Twilight 6:48 AM AST 6:36 PM AST
Nautical Twilight 6:14 AM AST 7:11 PM AST
Astronomical Twilight 5:40 AM AST 7:45 PM AST
Moon 3:09 PM AST (2/22) 5:07 AM AST (2/22)
Length of Visible Light 11h 47m
Length of Day
10h 48m
Waxing Gibbous, 90% of the Moon is Illuminated
Feb 22
Waxing Gibbous
Feb 25
Full
Mar 4
Last Quarter
Mar 11
New
Mar 19
First Quarter

Hourly Weather History & Observations

Time (AST) Temp. Windchill Dew Point Humidity Pressure Visibility Wind Dir Wind Speed Gust Speed Precip Events Conditions
12:00 AM 33.3 °F 23.7 °F 24.4 °F 70% 30.03 in - North 13.8 mph 24.2 mph N/A   Unknown
1:00 AM 31.5 °F 22.9 °F 25.0 °F 77% 30.06 in - North 10.4 mph 18.4 mph N/A   Unknown
2:00 AM 32 °F - 24 °F 63% 30.09 in - North 11.5 mph - -  
2:00 AM 31.8 °F 22.8 °F 24.3 °F 74% 30.09 in - North 11.5 mph 21.9 mph N/A   Unknown
3:00 AM 31.3 °F 22.1 °F 22.5 °F 70% 30.13 in - North 11.5 mph 18.4 mph N/A   Unknown
4:00 AM 30.6 °F 20.7 °F 21.2 °F 68% 30.17 in - North 12.7 mph 19.6 mph N/A   Unknown
5:00 AM 30 °F - 21 °F 58% 30.20 in - North 11.5 mph - -  
5:00 AM 30.4 °F 21.0 °F 21.0 °F 68% 30.20 in - North 11.5 mph 18.4 mph N/A   Unknown
6:00 AM 30.2 °F 21.9 °F 21.6 °F 70% 30.22 in - North 9.2 mph - N/A   Unknown
7:00 AM 29.3 °F 21.5 °F 20.8 °F 71% 30.24 in - North 8.1 mph - N/A   Unknown
8:00 AM 29 °F - 20 °F 57% 30.28 in - North 9.2 mph - -  
8:00 AM 28.6 °F 19.9 °F 19.6 °F 69% 30.28 in - North 9.2 mph - N/A   Unknown
9:00 AM 28.8 °F 20.2 °F 18.9 °F 67% 30.30 in - NNE 9.2 mph - N/A   Unknown
10:00 AM 29.3 °F 19.6 °F 19.2 °F 66% 30.32 in - NNE 11.5 mph 19.6 mph N/A   Unknown
11:00 AM 32 °F - 19 °F 45% 30.34 in - NNE 11.5 mph - -  
11:00 AM 31.8 °F 22.8 °F 18.9 °F 59% 30.34 in - NNE 11.5 mph - N/A   Unknown
12:00 PM 31.1 °F 22.4 °F 17.8 °F 58% 30.35 in - North 10.4 mph 18.4 mph N/A   Unknown
1:00 PM 34.0 °F 26.6 °F 17.6 °F 51% 30.33 in - North 9.2 mph - N/A   Unknown
2:00 PM 36 °F - 17 °F 32% 30.32 in - NNW 8.1 mph - -  
2:00 PM 36.0 °F 29.6 °F 17.1 °F 46% 30.32 in - NNW 8.1 mph - N/A   Unknown
3:00 PM 36.9 °F 31.4 °F 17.6 °F 46% 30.30 in - North 6.9 mph - N/A   Unknown
4:00 PM 37.2 °F 30.6 °F 18.3 °F 46% 30.30 in - North 9.2 mph - N/A   Unknown
5:00 PM 36 °F - 19 °F 37% 30.32 in - North 9.2 mph - -  
5:00 PM 36.1 °F 29.3 °F 19.0 °F 50% 30.32 in - North 9.2 mph - N/A   Unknown
6:00 PM 32.9 °F 28.5 °F 19.0 °F 57% 30.33 in - NNW 4.6 mph - N/A   Unknown
7:00 PM 29.5 °F 25.9 °F 19.0 °F 65% 30.34 in - NNW 3.5 mph - N/A   Unknown
8:00 PM 28 °F - 20 °F 60% 30.35 in - NE 3.5 mph - -  
8:00 PM 27.5 °F 23.6 °F 19.6 °F 72% 30.35 in - NE 3.5 mph - N/A   Unknown
9:00 PM 25.5 °F - 19.0 °F 76% 30.36 in - East 2.3 mph - N/A   Unknown
10:00 PM 25.0 °F 20.7 °F 18.5 °F 76% 30.37 in - East 3.5 mph - N/A   Unknown
11:00 PM 23 °F - 18 °F 74% 30.37 in - ENE 4.6 mph - -  
11:00 PM 23.0 °F 17.0 °F 18.1 °F 82% 30.37 in - ENE 4.6 mph - N/A   Unknown